Zurück zum Katalog

FENGYUN 1C DEB

AktivPO
NORAD 30539·DEBRIS·🇨🇳 China

Gestartet May 10, 1999 von Taiyuan Satellite Launch Center

Loading…

Nächste Überflüge (nächste 24 Stunden)

TLE

AktuellSource: Space-Track

Epoche: Sep 14, 2026, 11:11 UTC

1 30539U 99025AKD 26257.46616797  .00001031  00000-0  22339-3 0  9990
2 30539  98.8983 260.9721 0114902 156.9439 203.6973 14.56590753 33560

Verfolge FENGYUN 1C DEB in Echtzeit mit AllMySat

Download on the App Store